Time,TemperatureF,DewpointF,PressureIn,WindDirection,WindDirectionDegrees,WindSpeedMPH,WindSpeedGustMPH,Humidity,HourlyPrecipIn,Conditions,Clouds,dailyrainin,SolarRadiationWatts/m^2,SoftwareType,DateUTC
2013-01-07 00:02:00,39.0,38.0,-100.00,NNE,17,2.0,7.0,96,0.00,,,0.26,0.000000,,2013-01-07 06:02:00,
2013-01-07 00:32:00,37.0,36.0,-100.00,NE,42,2.0,4.0,98,0.00,,,0.26,0.000000,,2013-01-07 06:32:00,
2013-01-07 00:42:00,37.0,36.0,-100.00,NE,42,2.0,4.0,98,0.00,,,0.26,0.000000,,2013-01-07 06:42:00,
2013-01-07 00:52:00,37.0,36.0,-100.00,NE,42,2.0,4.0,98,0.00,,,0.26,0.000000,,2013-01-07 06:52:00,
2013-01-07 01:02:00,37.0,36.0,-100.00,NE,42,2.0,4.0,98,0.00,,,0.26,0.000000,,2013-01-07 07:02:00,
2013-01-07 01:33:00,37.0,37.0,-100.00,NE,44,2.0,3.0,99,0.00,,,0.26,0.000000,,2013-01-07 07:33:00,
2013-01-07 01:43:00,37.0,37.0,-100.00,NE,44,2.0,3.0,99,0.00,,,0.26,0.000000,,2013-01-07 07:43:00,
2013-01-07 01:53:00,37.0,37.0,-100.00,NE,44,2.0,3.0,99,0.00,,,0.26,0.000000,,2013-01-07 07:53:00,
2013-01-07 02:03:00,37.0,37.0,-100.00,NE,44,2.0,3.0,99,0.00,,,0.26,0.000000,,2013-01-07 08:03:00,
2013-01-07 02:33:00,36.0,36.0,-100.00,East,81,0.0,3.0,99,0.00,,,0.25,0.000000,,2013-01-07 08:33:00,
2013-01-07 02:43:00,36.0,36.0,-100.00,East,81,0.0,3.0,99,0.00,,,0.25,0.000000,,2013-01-07 08:43:00,
2013-01-07 02:53:00,36.0,36.0,-100.00,East,81,0.0,3.0,99,0.00,,,0.25,0.000000,,2013-01-07 08:53:00,
2013-01-07 03:02:00,36.0,36.0,-100.00,East,81,0.0,3.0,99,0.00,,,0.25,0.000000,,2013-01-07 09:02:00,
2013-01-07 03:32:00,35.0,35.0,-100.00,NNE,31,2.0,3.0,100,0.00,,,0.21,0.000000,,2013-01-07 09:32:00,
2013-01-07 03:42:00,35.0,35.0,-100.00,NNE,31,2.0,3.0,100,0.00,,,0.21,0.000000,,2013-01-07 09:42:00,
2013-01-07 03:52:00,35.0,35.0,-100.00,NNE,31,2.0,3.0,100,0.00,,,0.21,0.000000,,2013-01-07 09:52:00,
2013-01-07 04:02:00,35.0,35.0,-100.00,NNE,31,2.0,3.0,100,0.00,,,0.21,0.000000,,2013-01-07 10:02:00,
2013-01-07 04:33:00,34.0,34.0,-100.00,NE,37,2.0,4.0,100,0.00,,,0.09,0.000000,,2013-01-07 10:33:00,
2013-01-07 04:43:00,34.0,34.0,-100.00,NE,37,2.0,4.0,100,0.00,,,0.09,0.000000,,2013-01-07 10:43:00,
2013-01-07 04:52:00,34.0,34.0,-100.00,NE,37,2.0,4.0,100,0.00,,,0.09,0.000000,,2013-01-07 10:52:00,
2013-01-07 05:02:00,34.0,34.0,-100.00,NE,37,2.0,4.0,100,0.00,,,0.09,0.000000,,2013-01-07 11:02:00,
2013-01-07 05:33:00,33.0,33.0,-100.00,NNE,32,3.0,4.0,100,0.00,,,0.03,0.000000,,2013-01-07 11:33:00,
2013-01-07 05:43:00,33.0,33.0,-100.00,NNE,32,3.0,4.0,100,0.00,,,0.03,0.000000,,2013-01-07 11:43:00,
2013-01-07 05:53:00,33.0,33.0,-100.00,NNE,32,3.0,4.0,100,0.00,,,0.03,0.000000,,2013-01-07 11:53:00,
2013-01-07 06:03:00,33.0,33.0,-100.00,NNE,32,3.0,4.0,100,0.00,,,0.03,0.000000,,2013-01-07 12:03:00,
2013-01-07 06:33:00,33.0,33.0,-100.00,NE,35,3.0,4.0,100,0.00,,,0.02,0.000000,,2013-01-07 12:33:00,
2013-01-07 06:43:00,33.0,33.0,-100.00,NE,35,3.0,4.0,100,0.00,,,0.02,0.000000,,2013-01-07 12:43:00,
2013-01-07 06:53:00,33.0,33.0,-100.00,NE,35,3.0,4.0,100,0.00,,,0.02,0.000000,,2013-01-07 12:53:00,
2013-01-07 07:02:00,33.0,33.0,-100.00,NE,35,3.0,4.0,100,0.00,,,0.02,0.000000,,2013-01-07 13:02:00,
2013-01-07 07:33:00,32.0,32.0,-100.00,NNE,22,3.0,4.0,100,0.00,,,0.01,1.000000,,2013-01-07 13:33:00,
2013-01-07 07:43:00,32.0,32.0,-100.00,NNE,22,3.0,4.0,100,0.00,,,0.01,1.000000,,2013-01-07 13:43:00,
2013-01-07 07:53:00,32.0,32.0,-100.00,NNE,22,3.0,4.0,100,0.00,,,0.01,1.000000,,2013-01-07 13:53:00,
2013-01-07 08:03:00,32.0,32.0,-100.00,NNE,22,3.0,4.0,100,0.00,,,0.01,1.000000,,2013-01-07 14:03:00,
2013-01-07 08:33:00,35.0,35.0,-100.00,NNE,33,3.0,5.0,100,0.00,,,0.00,20.000000,,2013-01-07 14:33:00,
2013-01-07 08:43:00,35.0,35.0,-100.00,NNE,33,3.0,5.0,100,0.00,,,0.00,20.000000,,2013-01-07 14:43:00,
2013-01-07 08:53:00,35.0,35.0,-100.00,NNE,33,3.0,5.0,100,0.00,,,0.00,20.000000,,2013-01-07 14:53:00,
2013-01-07 09:03:00,35.0,35.0,-100.00,NNE,33,3.0,5.0,100,0.00,,,0.00,20.000000,,2013-01-07 15:03:00,
2013-01-07 09:33:00,41.0,40.0,-100.00,NE,47,5.0,9.0,98,0.00,,,0.00,127.000000,,2013-01-07 15:33:00,
2013-01-07 09:43:00,41.0,40.0,-100.00,NE,47,5.0,9.0,98,0.00,,,0.00,127.000000,,2013-01-07 15:43:00,
2013-01-07 09:53:00,41.0,40.0,-100.00,NE,47,5.0,9.0,98,0.00,,,0.00,127.000000,,2013-01-07 15:53:00,
2013-01-07 10:02:00,41.0,40.0,-100.00,NE,47,5.0,9.0,98,0.00,,,0.00,127.000000,,2013-01-07 16:02:00,
2013-01-07 10:33:00,46.0,39.0,-100.00,ENE,71,7.0,11.0,77,0.00,,,0.00,361.000000,,2013-01-07 16:33:00,
2013-01-07 10:43:00,46.0,39.0,-100.00,ENE,71,7.0,11.0,77,0.00,,,0.00,361.000000,,2013-01-07 16:43:00,
2013-01-07 10:53:00,46.0,39.0,-100.00,ENE,71,7.0,11.0,77,0.00,,,0.00,361.000000,,2013-01-07 16:53:00,
2013-01-07 11:02:00,46.0,39.0,-100.00,ENE,71,7.0,11.0,77,0.00,,,0.00,361.000000,,2013-01-07 17:02:00,
2013-01-07 11:33:00,51.0,38.0,-100.00,ENE,77,6.0,12.0,60,0.00,,,0.00,483.000000,,2013-01-07 17:33:00,
2013-01-07 11:43:00,51.0,38.0,-100.00,ENE,77,6.0,12.0,60,0.00,,,0.00,483.000000,,2013-01-07 17:43:00,
2013-01-07 11:53:00,51.0,38.0,-100.00,ENE,77,6.0,12.0,60,0.00,,,0.00,483.000000,,2013-01-07 17:53:00,
2013-01-07 12:03:00,51.0,38.0,-100.00,ENE,77,6.0,12.0,60,0.00,,,0.00,483.000000,,2013-01-07 18:03:00,
2013-01-07 12:33:00,55.0,36.0,-100.00,ENE,59,5.0,10.0,48,0.00,,,0.00,549.000000,,2013-01-07 18:33:00,
2013-01-07 12:43:00,55.0,36.0,-100.00,ENE,59,5.0,10.0,48,0.00,,,0.00,549.000000,,2013-01-07 18:43:00,
2013-01-07 12:53:00,55.0,36.0,-100.00,ENE,59,5.0,10.0,48,0.00,,,0.00,549.000000,,2013-01-07 18:53:00,
2013-01-07 13:03:00,55.0,36.0,-100.00,ENE,59,5.0,10.0,48,0.00,,,0.00,549.000000,,2013-01-07 19:03:00,
2013-01-07 13:33:00,58.0,36.0,-100.00,East,79,5.0,9.0,43,0.00,,,0.00,554.000000,,2013-01-07 19:33:00,
2013-01-07 13:43:00,58.0,36.0,-100.00,East,79,5.0,9.0,43,0.00,,,0.00,554.000000,,2013-01-07 19:43:00,
2013-01-07 13:53:00,58.0,36.0,-100.00,East,79,5.0,9.0,43,0.00,,,0.00,554.000000,,2013-01-07 19:53:00,
2013-01-07 14:03:00,58.0,36.0,-100.00,East,79,5.0,9.0,43,0.00,,,0.00,554.000000,,2013-01-07 20:03:00,
2013-01-07 14:33:00,60.0,35.0,-100.00,ENE,61,4.0,9.0,39,0.00,,,0.00,492.000000,,2013-01-07 20:33:00,
2013-01-07 14:43:00,60.0,35.0,-100.00,ENE,61,4.0,9.0,39,0.00,,,0.00,492.000000,,2013-01-07 20:43:00,
2013-01-07 14:53:00,60.0,35.0,-100.00,ENE,61,4.0,9.0,39,0.00,,,0.00,492.000000,,2013-01-07 20:53:00,
2013-01-07 15:03:00,60.0,35.0,-100.00,ENE,61,4.0,9.0,39,0.00,,,0.00,492.000000,,2013-01-07 21:03:00,
2013-01-07 15:33:00,60.0,35.0,-100.00,ENE,74,3.0,9.0,39,0.00,,,0.00,332.000000,,2013-01-07 21:33:00,
2013-01-07 15:43:00,60.0,35.0,-100.00,ENE,74,3.0,9.0,39,0.00,,,0.00,332.000000,,2013-01-07 21:43:00,
2013-01-07 15:53:00,60.0,35.0,-100.00,ENE,74,3.0,9.0,39,0.00,,,0.00,332.000000,,2013-01-07 21:53:00,
2013-01-07 16:02:00,60.0,35.0,-100.00,ENE,74,3.0,9.0,39,0.00,,,0.00,332.000000,,2013-01-07 22:02:00,
2013-01-07 16:33:00,57.0,38.0,-100.00,North,3,2.0,6.0,48,0.00,,,-99.99,166.000000,,2013-01-07 22:33:00,
2013-01-07 16:43:00,57.0,38.0,-100.00,North,3,2.0,6.0,48,0.00,,,-99.99,166.000000,,2013-01-07 22:43:00,
2013-01-07 16:53:00,57.0,38.0,-100.00,North,3,2.0,6.0,48,0.00,,,-99.99,166.000000,,2013-01-07 22:53:00,
2013-01-07 17:02:00,57.0,38.0,-100.00,North,3,2.0,6.0,48,0.00,,,-99.99,166.000000,,2013-01-07 23:02:00,
2013-01-07 17:33:00,51.0,39.0,-100.00,NNE,33,0.0,4.0,64,0.00,,,0.00,27.000000,,2013-01-07 23:33:00,
2013-01-07 17:43:00,51.0,39.0,-100.00,NNE,33,0.0,4.0,64,0.00,,,0.00,27.000000,,2013-01-07 23:43:00,
2013-01-07 17:53:00,51.0,39.0,-100.00,NNE,33,0.0,4.0,64,0.00,,,0.00,27.000000,,2013-01-07 23:53:00,
2013-01-07 18:02:00,51.0,39.0,-100.00,NNE,33,0.0,4.0,64,0.00,,,0.00,27.000000,,2013-01-08 00:02:00,
2013-01-07 18:33:00,48.0,38.0,-100.00,ENE,65,2.0,3.0,67,0.00,,,0.00,1.000000,,2013-01-08 00:33:00,
2013-01-07 18:43:00,48.0,38.0,-100.00,ENE,65,2.0,3.0,67,0.00,,,0.00,1.000000,,2013-01-08 00:43:00,
2013-01-07 18:53:00,48.0,38.0,-100.00,ENE,65,2.0,3.0,67,0.00,,,0.00,1.000000,,2013-01-08 00:53:00,
2013-01-07 19:03:00,48.0,38.0,-100.00,ENE,65,2.0,3.0,67,0.00,,,0.00,1.000000,,2013-01-08 01:03:00,
2013-01-07 19:33:00,48.0,37.0,-100.00,ENE,70,3.0,6.0,65,0.00,,,0.00,0.000000,,2013-01-08 01:33:00,
2013-01-07 19:42:00,48.0,37.0,-100.00,ENE,70,3.0,6.0,65,0.00,,,0.00,0.000000,,2013-01-08 01:42:00,
2013-01-07 19:52:00,48.0,37.0,-100.00,ENE,70,3.0,6.0,65,0.00,,,0.00,0.000000,,2013-01-08 01:52:00,
2013-01-07 20:02:00,48.0,37.0,-100.00,ENE,70,3.0,6.0,65,0.00,,,0.00,0.000000,,2013-01-08 02:02:00,
2013-01-07 20:33:00,47.0,38.0,-100.00,ENE,75,2.0,5.0,70,0.00,,,0.00,0.000000,,2013-01-08 02:33:00,
2013-01-07 20:43:00,47.0,38.0,-100.00,ENE,75,2.0,5.0,70,0.00,,,0.00,0.000000,,2013-01-08 02:43:00,
2013-01-07 20:53:00,47.0,38.0,-100.00,ENE,75,2.0,5.0,70,0.00,,,0.00,0.000000,,2013-01-08 02:53:00,
2013-01-07 21:03:00,47.0,38.0,-100.00,ENE,75,2.0,5.0,70,0.00,,,0.00,0.000000,,2013-01-08 03:03:00,
2013-01-07 21:33:00,48.0,37.0,-100.00,East,81,3.0,6.0,66,0.00,,,0.00,0.000000,,2013-01-08 03:33:00,
2013-01-07 21:43:00,48.0,37.0,-100.00,East,81,3.0,6.0,66,0.00,,,0.00,0.000000,,2013-01-08 03:43:00,
2013-01-07 21:53:00,48.0,37.0,-100.00,East,81,3.0,6.0,66,0.00,,,0.00,0.000000,,2013-01-08 03:53:00,
2013-01-07 22:02:00,48.0,37.0,-100.00,East,81,3.0,6.0,66,0.00,,,0.00,0.000000,,2013-01-08 04:02:00,
2013-01-07 22:32:00,45.0,38.0,-100.00,NE,41,0.0,4.0,76,0.00,,,0.00,0.000000,,2013-01-08 04:32:00,
2013-01-07 22:43:00,45.0,38.0,-100.00,NE,41,0.0,4.0,76,0.00,,,0.00,0.000000,,2013-01-08 04:43:00,
2013-01-07 22:52:00,45.0,38.0,-100.00,NE,41,0.0,4.0,76,0.00,,,0.00,0.000000,,2013-01-08 04:52:00,
2013-01-07 23:03:00,45.0,38.0,-100.00,NE,41,0.0,4.0,76,0.00,,,0.00,0.000000,,2013-01-08 05:03:00,
2013-01-07 23:33:00,46.0,37.0,-100.00,ENE,67,3.0,6.0,71,0.00,,,0.00,0.000000,,2013-01-08 05:33:00,
2013-01-07 23:43:00,46.0,37.0,-100.00,ENE,67,3.0,6.0,71,0.00,,,0.00,0.000000,,2013-01-08 05:43:00,
2013-01-07 23:53:00,46.0,37.0,-100.00,ENE,67,3.0,6.0,71,0.00,,,0.00,0.000000,,2013-01-08 05:53:00,